Other Public Products
Issued by NWS Grand Forks, ND

Home | Current Version | Previous Version | Text Only | Print | Product List | Glossary On
Versions: 1 2 3 4 5 6 7 8 9 10 11 12 13 14 15 16 17 18 19 20 21 22 23 24 25 26 27 28 29 30 31 32 33 34 35 36 37 38 39 40 41 42 43 44 45 46 47 48 49 50
000
FPUS83 KFGF 281831
OPUFGF
PRAIRIE TO PINES WEATHER ROUNDUP
NATIONAL WEATHER SERVICE EASTERN NORTH DAKOTA/GRAND FORKS ND
100 PM CDT WED SEP 28 2016

 **SATELLITE DATA USED TO AUGMENT SKY COVER AT AUTOMATED STATIONS**
 *****  WEATHER ACROSS EASTERN NORTH DAKOTA  *****

CITY           SKY/WX    TMP DP  RH WIND       PRES   REMARKS
GRAND FORKS    CLOUDY    58  45  62 CALM      30.31S
6HR MIN TEMP:  37; 6HR MAX TEMP:  58;

GRAND FORKS AF CLOUDY    56  46  67 VRB1      30.32R
GRAND CITY NWS   N/A     55 N/A N/A NE5         N/A
BUXTON           N/A     64  53  69 NE2         N/A
DEVILS LAKE    CLOUDY    51  44  77 CALM      30.33S
6HR MIN TEMP:  44; 6HR MAX TEMP:  52;

FARGO          CLOUDY    57  47  69 NW3       30.30R
6HR MIN TEMP:  44; 6HR MAX TEMP:  57;

WAHPETON ARPT  MOCLDY    55  45  67 N6        30.30R
$$

 *****  WEATHER ACROSS CENTRAL AND WESTERN NORTH DAKOTA  *****

CITY           SKY/WX    TMP DP  RH WIND       PRES   REMARKS
JAMESTOWN      MOSUNNY   55  46  71 W3        30.30S
6HR MIN TEMP:  44; 6HR MAX TEMP:  56;

BISMARCK       SUNNY     64  43  46 SE7       30.29S
6HR MIN TEMP:  36; 6HR MAX TEMP:  64;

MINOT          SUNNY     66  42  41 E9        30.28R
6HR MIN TEMP:  40; 6HR MAX TEMP:  66;

MINOT AFB      SUNNY     66  41  40 E9        30.27R
6HR MIN TEMP:  37; 6HR MAX TEMP:  66;

GARRISON         N/A     67  37  33 E8        30.27S
6HR MIN TEMP:  41; 6HR MAX TEMP:  67;

WILLISTON      SUNNY     64  49  57 N5        30.26F
6HR MIN TEMP:  47; 6HR MAX TEMP:  64;

DICKINSON      SUNNY     69  47  45 SE9       30.25R
6HR MIN TEMP:  44; 6HR MAX TEMP:  69;

HETTINGER      SUNNY     70  46  42 SE8       30.27S
6HR MIN TEMP:  42; 6HR MAX TEMP:  70;

$$

 *****  OTHER OBSERVATIONS NORTHEAST NORTH DAKOTA  *****

CITY           SKY/WX    TMP DP  RH WIND       PRES   REMARKS
WALHALLA       FAIR      57  54  88 SE5       30.33R
LANGDON        FAIR      59  46  63 CALM      30.33R
CAVALIER       FAIR      57  45  62 SE3       30.33S
GRAFTON          N/A     57  46  67 CALM      30.34S
CANDO          CLOUDY    55  48  76 CALM      30.35R
FORT TOTTEN      N/A     53  48  82 N3        29.95
ROLLA          FAIR      59  39  47 NE5       30.32R
RUGBY          FAIR      57  46  67 S6        30.31R
 ***** THE ABOVE OBSERVATIONS ARE NON NWS ARE NOT QUALITY
        CONTROLLED AND MAY MIS-REPORT RAIN FOR SNOW...
$$

 *****  OTHER OBSERVATIONS SOUTHEAST NORTH DAKOTA *****

CITY           SKY/WX    TMP DP  RH WIND       PRES   REMARKS
COOPERSTOWN    FAIR      59  45  58 N5        30.31F
VALLEY CITY    FAIR      57  46  67 NE8       30.32S
OAKES          NOT AVBL
GWINNER        FAIR      59  46  63 N7        30.30S
BUFFALO          N/A     59  38  45 NE6         N/A
WYNDMERE         N/A     54  48  82 N3          N/A
 ***** THE ABOVE OBSERVATIONS ARE NON NWS ARE NOT QUALITY
       CONTROLLED AND MAY MIS-REPORT RAIN FOR SNOW...
$$

  *****  WEATHER ACROSS NORTHERN MINNESOTA  *****

CITY           SKY/WX    TMP DP  RH WIND       PRES   REMARKS
FLAG ISLAND    CLOUDY    55  50  82 S5        30.30R
WARROAD        CLOUDY    57  52  82 E8        30.32R
ROSEAU         CLOUDY    57  50  77 CALM      30.31S
HALLOCK        CLOUDY    55  46  71 NE3       30.32S
THF RVR FALLS  CLOUDY    57  47  69 CALM      30.31R
6HR MIN TEMP:  45; 6HR MAX TEMP:  58;

HALSTAD          N/A     58  48  69 N6          N/A
FOSSTON        CLOUDY    55  55 100 NE6       30.31R
BAUDETTE       PTSUNNY   57  48  72 CALM      30.31R
6HR MIN TEMP:  46; 6HR MAX TEMP:  58;

WASKISH        CLOUDY    57  50  77 NE3       30.30S
CROOKSTON      PTSUNNY   57  48  72 CALM      30.31S
$$
  *****  WEATHER ACROSS CENTRAL AND WEST MINNESOTA  *****

CITY           SKY/WX    TMP DP  RH WIND       PRES   REMARKS
BEMIDJI        CLOUDY    56  48  72 NE5       30.29S
PARK RAPIDS    PTSUNNY   61  45  55 N14       30.27R
6HR MIN TEMP:  48; 6HR MAX TEMP:  60;

WADENA         CLOUDY    57  46  67 N8        30.27R
DETROIT LAKES  PTSUNNY   55  46  71 NE7       30.30R
MOORHEAD       PTSUNNY   59  48  67 N7        30.30S
FERGUS FALLS   CLOUDY    57  46  67 N3        30.30R
ELBOW LAKE     CLOUDY    57  47  68 N8        30.28S
MORRIS MN      CLOUDY    59  46  63 NW8       30.26R
STAPLES        CLOUDY    59  45  58 NE5       30.26R
WHEATON        PTSUNNY   55  48  76 NW8       30.30S
$$
  *****  WEATHER ELSEWHERE ACROSS MINNESOTA  *****

CITY           SKY/WX    TMP DP  RH WIND       PRES   REMARKS
DULUTH         CLOUDY    58  49  72 N9        30.22R
6HR MIN TEMP:  49; 6HR MAX TEMP:  58;

INTRNTL FALLS  CLOUDY    57  47  69 NE6       30.29R
6HR MIN TEMP:  51; 6HR MAX TEMP:  59;

ELY            CLOUDY    55  46  71 CALM      30.26R
CLOQUET        CLOUDY    57  46  67 N7        30.23R
BRAINERD       CLOUDY    57  47  69 NE12      30.26R
6HR MIN TEMP:  47; 6HR MAX TEMP:  57;

HIBBING        CLOUDY    55  47  74 N8        30.26R
6HR MIN TEMP:  46; 6HR MAX TEMP:  55;

ALEXANDRIA     PTSUNNY   61  48  62 N8        30.27R
6HR MIN TEMP:  47; 6HR MAX TEMP:  61;

SAINT CLOUD    CLOUDY    59  49  69 N12G18    30.23R
6HR MIN TEMP:  47; 6HR MAX TEMP:  59;

MINNEAPOLIS    CLOUDY    59  49  69 N14       30.19R
6HR MIN TEMP:  51; 6HR MAX TEMP:  60;

$$

  *****  WEATHER ACROSS SOUTH DAKOTA  *****

CITY           SKY/WX    TMP DP  RH WIND       PRES   REMARKS
SIOUX FALLS    MOSUNNY   62  46  55 N12       30.25R
6HR MIN TEMP:  43; 6HR MAX TEMP:  62;

BROOKINGS      SUNNY     56  46  69 VRB6      30.26R
WATERTOWN      SUNNY     60  46  59 NE8       30.26R
6HR MIN TEMP:  36; 6HR MAX TEMP:  60;

HURON          SUNNY     60  44  55 MISG      30.27R
6HR MIN TEMP:  41; 6HR MAX TEMP:  61;

SISSETON         N/A     53  45  74 NE6       30.29R
ABERDEEN       SUNNY     59  43  55 NE7       30.29S
6HR MIN TEMP:  38; 6HR MAX TEMP:  60;

MITCHELL       SUNNY     59  44  57 VRB6      30.28S
PIERRE         SUNNY     64  39  39 VRB5      30.26S
6HR MIN TEMP:  37; 6HR MAX TEMP:  64;

MOBRIDGE       SUNNY     65  41  41 SE8       30.26S
RAPID CITY     SUNNY     77  46  33 N9        30.26S
6HR MIN TEMP:  52; 6HR MAX TEMP:  77;

$$

  *****  SOME WEATHER IN NEARBY STATES *****

CITY           SKY/WX    TMP DP  RH WIND       PRES   REMARKS
GLASGOW MT     SUNNY     64  46  52 VRB7      30.27F
6HR MIN TEMP:  46; 6HR MAX TEMP:  64;

GREAT FALLS MT SUNNY     56  39  53 W5        30.27F
6HR MIN TEMP:  36; 6HR MAX TEMP:  56;

CHEYENNE WY    SUNNY     72  35  25 SE6       30.39F
6HR MIN TEMP:  45; 6HR MAX TEMP:  73;

SCOTTSBLUFF NE SUNNY     76  45  33 SE8       30.30F
6HR MIN TEMP:  45; 6HR MAX TEMP:  76;

OMAHA NE       MOSUNNY   61  45  55 N17G23    30.20R
6HR MIN TEMP:  46; 6HR MAX TEMP:  61; 6HR PCP: TRACE;

DES MOINES IA  CLOUDY    58  47  66 NW15      30.13R
6HR MIN TEMP:  52; 6HR MAX TEMP:  60;

DAVENPORT IA   CLOUDY    60  48  64 N9        30.02R
6HR MIN TEMP:  50; 6HR MAX TEMP:  60;

CHICAGO IL     CLOUDY    57  48  72 N15       29.93R
6HR MIN TEMP:  51; 6HR MAX TEMP:  60; 6HR PCP: TRACE;

EAU CLAIRE WI  CLOUDY    62  48  60 N15G24    30.11R
6HR MIN TEMP:  52; 6HR MAX TEMP:  63; 6HR PCP: TRACE;

LA CROSSE WI   LGT RAIN  61  54  77 N13       30.08R
6HR MIN TEMP:  53; 6HR MAX TEMP:  65; 6HR PCP:  0.01;

$$

  *****  SOME NATIONAL WEATHER *****

CITY           SKY/WX    TMP DP  RH WIND       PRES   REMARKS
LA GUARDIA NY  CLOUDY    68  58  70 NE17      30.12F
6HR MIN TEMP:  65; 6HR MAX TEMP:  71;

RALEIGH NC     PTSUNNY   85  68  56 SW5       29.94F               C1F1C2F2C3F3C4F4C5F5C6F6C7F7C8F8C9F9CaFaCbFbCcFcCdFdCe!



USA.gov is the U.S. government's official web portal to all federal, state and local government web resources and services.